Regional Weather Roundup
Issued by NWS Goodland, KS

Home | Current Version | Previous Version | Text Only | Print | Product List | Glossary Off
Versions: 1 2 3 4 5 6 7 8 9 10 11 12 13 14 15 16 17 18 19 20 21 22 23 24 25 26 27 28 29 30 31 32 33 34 35 36 37 38 39 40 41 42 43 44 45 46 47 48 49 50

000
ASUS43 KGLD 042008
RWRGLD

GOODLAND FORECAST AREA HOURLY WEATHER ROUNDUP
NATIONAL WEATHER SERVICE GOODLAND KS
200 PM MDT TUE AUG 04 2015

...OFFICIAL OBSERVATIONS...

CITY           SKY/WX    TMP DP  RH WIND       PRES   REMARKS
GOODLAND KS    MOSUNNY   82  61  48 NE31G39   29.96R HAZE
HILL CITY KS   CLOUDY    89  60  37 VRB7      29.91R
IMPERIAL NEB   CLOUDY    63  59  87 N10       29.98S
MCCOOK NEB     TSTM      65  61  87 N10G30    29.97R FOG
AKRON CO       CLOUDY    82  46  28 N20G26    30.03S
BURLINGTON CO  MOSUNNY   87  55  33 N13       29.99R
LIMON CO       SUNNY     86  44  23 VRB7      30.07F
$$

...UNOFFICIAL OBSERVATIONS...

CITY           SKY/WX    TMP DP  RH WIND       PRES   REMARKS
COLBY KS       MOSUNNY   84  64  51 N12G21    29.95R
NORTON KS      MOSUNNY   75  66  73 E14G22    29.92F
SHARON SPRINGS   N/A     92  60  34 SW5         N/A
TRIBUNE KS     SUNNY     91  57  31 S9        29.94F
KIT CARSON CO    N/A     90  53  28 MISG        N/A
YUMA CO          N/A     87  52  29 NE12        N/A
$$


USA.gov is the U.S. government's official web portal to all federal, state and local government web resources and services.